Location: Unspecified
(41.5000°N, 0.0000°E)
Time: 17:15:25
(UTC+00:00)

Tiros 1 - All Passes

Search period start: 24 June 2019 00:00
Search period end: 04 July 2019 00:00
Orbit: 631 x 664 km, 48.4° (Epoch: 23 June)

Date Brightness Start Highest point End Pass type
(mag) Time Alt. Az. Time Alt. Az. Time Alt. Az.
24 Jun - 00:16:27 10° W 00:20:56 42° NNW 00:25:22 10° ENE visible
24 Jun - 01:59:31 10° WNW 02:03:50 36° N 02:08:08 10° ENE visible
24 Jun - 03:41:51 10° WNW 03:46:30 75° NNE 03:51:08 10° ESE visible
24 Jun - 05:24:34 10° W 05:28:23 26° SW 05:32:10 10° SSE daylight
24 Jun - 21:18:26 10° SSW 21:22:36 31° SE 21:26:46 10° ENE visible
24 Jun - 22:59:55 10° WSW 23:04:37 66° NNW 23:09:16 10° ENE visible
25 Jun - 00:43:02 10° WNW 00:47:21 35° N 00:51:38 10° ENE visible
25 Jun - 02:25:46 10° WNW 02:30:15 46° NNE 02:34:42 10° E visible
25 Jun - 04:08:01 10° WNW 04:12:35 59° SW 04:17:06 10° SE daylight
25 Jun - 05:52:43 10° WSW 05:54:00 11° SW 05:55:19 10° SSW daylight
25 Jun - 20:04:45 10° SSE 20:06:59 13° SE 20:09:11 10° ESE visible
25 Jun - 21:43:50 10° SW 21:48:31 65° SE 21:53:10 10° ENE visible
25 Jun - 23:26:24 10° W 23:30:55 44° NNW 23:35:23 10° ENE visible
26 Jun - 01:09:30 10° WNW 01:13:49 36° N 01:18:06 10° ENE visible
26 Jun - 02:51:52 10° WNW 02:56:32 71° NNE 03:01:08 10° ESE visible
26 Jun - 04:34:30 10° W 04:38:26 28° SW 04:42:21 10° SSE daylight
26 Jun - 20:28:34 10° SSW 20:32:39 29° SE 20:36:43 10° ENE visible
26 Jun - 22:09:53 10° WSW 22:14:37 70° NNW 22:19:17 10° ENE visible
26 Jun - 23:52:59 10° WNW 23:57:20 36° N 00:01:37 10° ENE visible
27 Jun - 01:35:45 10° WNW 01:40:14 44° NNE 01:44:41 10° E visible
27 Jun - 03:18:00 10° WNW 03:22:37 63° SSW 03:27:10 10° SE visible
27 Jun - 05:02:13 10° WSW 05:04:05 12° SW 05:05:56 10° SSW daylight
27 Jun - 19:15:13 10° SSE 19:17:02 12° SE 19:18:52 10° ESE daylight
27 Jun - 20:53:51 10° SW 20:58:32 61° SE 21:03:10 10° ENE visible
27 Jun - 22:36:21 10° W 22:40:53 45° NNW 22:45:24 10° ENE visible
28 Jun - 00:19:28 10° WNW 00:23:48 35° N 00:28:05 10° ENE visible
28 Jun - 02:01:52 10° WNW 02:06:32 67° NNE 02:11:08 10° ESE visible
28 Jun - 03:44:26 10° WNW 03:48:29 30° SW 03:52:30 10° SSE visible
28 Jun - 19:38:42 10° SSW 19:42:41 27° SE 19:46:40 10° E daylight
28 Jun - 21:19:52 10° WSW 21:24:36 74° NNW 21:29:19 10° ENE visible
28 Jun - 23:02:56 10° WNW 23:07:18 36° N 23:11:37 10° ENE visible
29 Jun - 00:45:45 10° WNW 00:50:13 43° NNE 00:54:39 10° E visible
29 Jun - 02:28:00 10° WNW 02:32:38 68° SSW 02:37:13 10° SE visible
29 Jun - 04:11:53 10° WSW 04:14:09 14° SW 04:16:25 10° SSW daylight
29 Jun - 18:25:49 10° SE 18:27:06 11° SE 18:28:23 10° ESE daylight
29 Jun - 20:03:53 10° SW 20:08:33 57° SE 20:13:10 10° ENE visible
29 Jun - 21:46:17 10° W 21:50:52 47° NNW 21:55:25 10° ENE visible
29 Jun - 23:29:25 10° WNW 23:33:46 35° N 23:38:03 10° ENE visible
30 Jun - 01:11:52 10° WNW 01:16:31 64° NNE 01:21:07 10° ESE visible
30 Jun - 02:54:22 10° WNW 02:58:32 32° SW 03:02:39 10° SSE visible
30 Jun - 18:48:51 10° SSW 18:52:44 25° SE 18:56:36 10° E daylight
30 Jun - 20:29:50 10° WSW 20:34:36 78° NNW 20:39:20 10° ENE visible
30 Jun - 22:12:52 10° WNW 22:17:16 37° N 22:21:38 10° ENE visible
30 Jun - 23:55:44 10° WNW 00:00:12 42° NNE 00:04:38 10° E visible
01 Jul - 01:37:59 10° WNW 01:42:40 73° SSW 01:47:16 10° SE visible
01 Jul - 03:21:38 10° W 03:24:14 15° SW 03:26:48 10° SSW visible
01 Jul - 19:13:56 10° SW 19:18:34 53° SE 19:23:10 10° ENE daylight
01 Jul - 20:56:14 10° W 21:00:51 49° NNW 21:05:26 10° ENE visible
01 Jul - 22:39:23 10° WNW 22:43:44 35° N 22:48:02 10° ENE visible
02 Jul - 00:21:52 10° WNW 00:26:31 61° NNE 00:31:07 10° ESE visible
02 Jul - 02:04:20 10° WNW 02:08:34 35° SW 02:12:47 10° SSE visible
02 Jul - 17:58:59 10° S 18:02:46 23° SE 18:06:32 10° E daylight
02 Jul - 19:39:49 10° WSW 19:44:36 83° NNW 19:49:21 10° ENE daylight
02 Jul - 21:22:49 10° WNW 21:27:14 37° N 21:31:38 10° ENE visible
02 Jul - 23:05:43 10° WNW 23:10:10 41° NNE 23:14:36 10° E visible
03 Jul - 00:47:59 10° WNW 00:52:41 78° SSW 00:57:18 10° SE visible
03 Jul - 02:31:25 10° W 02:34:17 16° SW 02:37:09 10° S visible
03 Jul - 18:23:59 10° SW 18:28:35 49° SE 18:33:10 10° ENE daylight
03 Jul - 20:06:11 10° W 20:10:50 51° NNW 20:15:27 10° ENE visible
03 Jul - 21:49:20 10° WNW 21:53:42 35° N 21:58:02 10° ENE visible
03 Jul - 23:31:52 10° WNW 23:36:32 58° NNE 23:41:07 10° ESE visible
